START_TIME,STEP,MOV.,M6,t_acc.,M7,t_acc.,M19,t_acc.,H36,t_acc.
1979-07-16 15:00:27.160 ,0,0,0.,12.0,0.,12.0,0.,12.0,0.,12.0
1979-07-16 15:00:39.160 ,0,0,0.,12.0,0.,12.0,0.,12.0,0.,12.0
1979-07-16 15:00:51.160 ,2,1,0.,12.0,0.,12.0,0.,12.0,0.,12.0
1979-07-16 15:01:03.160 ,2,1,0.,12.0,0.,12.0,0.,12.0,0.,12.0
1979-07-16 15:01:15.160 ,2,0,0.,12.0,0.,12.0,0.,12.0,0.,12.0
1979-07-16 15:01:27.160 ,2,0,0.,12.0,0.,12.0,0.,12.0,0.,12.0
1979-07-16 15:01:39.160 ,3,1,0.,12.0,0.,12.0,0.,12.0,0.,12.0
1979-07-16 15:01:51.160 ,3,1,0.,12.0,0.,12.0,0.,12.0,0.,12.0
1979-07-16 15:02:03.160 ,3,0,0.,12.0,0.,12.0,0.,12.0,1.,12.0
1979-07-16 15:02:15.160 ,3,0,0.,12.0,0.,12.0,0.,12.0,0.,12.0
1979-07-16 15:02:27.160 ,4,1,0.,12.0,0.,12.0,0.,12.0,0.,12.0
1979-07-16 15:02:39.160 ,4,1,0.,12.0,0.,12.0,0.,12.0,0.,12.0
1979-07-16 15:02:51.160 ,4,0,0.,12.0,0.,12.0,0.,12.0,0.,12.0
1979-07-16 15:03:03.160 ,4,0,0.,12.0,0.,12.0,0.,12.0,0.,12.0
1979-07-16 15:04:03.160 ,0,0,0.,12.0,0.,12.0,0.,12.0,0.,12.0
1979-07-16 15:04:15.160 ,0,0,0.,12.0,0.,12.0,0.,12.0,0.,12.0
1979-07-16 15:04:27.160 ,0,0,0.,12.0,0.,12.0,0.,12.0,0.,12.0
1979-07-16 15:04:39.160 ,0,0,0.,12.0,0.,12.0,0.,12.0,0.,12.0
1979-07-16 15:04:51.160 ,7,1,0.,12.0,0.,12.0,0.,12.0,0.,12.0
1979-07-16 15:05:03.160 ,7,1,0.,12.0,0.,12.0,0.,12.0,0.,12.0
1979-07-16 15:05:15.160 ,7,0,0.,12.0,0.,12.0,0.,12.0,0.,12.0
1979-07-16 15:05:27.160 ,7,0,0.,12.0,0.,12.0,0.,12.0,0.,12.0
1979-07-16 15:05:39.160 ,7,1,0.,12.0,0.,12.0,0.,12.0,0.,12.0
1979-07-16 15:05:51.160 ,7,1,0.,12.0,0.,12.0,0.,12.0,0.,12.0
1979-07-16 15:06:03.160 ,7,0,0.,12.0,0.,12.0,0.,12.0,0.,12.0
1979-07-16 15:06:15.160 ,7,0,0.,12.0,0.,12.0,0.,12.0,0.,12.0
1979-07-16 15:06:27.160 ,6,1,0.,12.0,0.,12.0,0.,12.0,0.,12.0
1979-07-16 15:06:39.160 ,6,1,0.,12.0,0.,12.0,0.,12.0,0.,12.0
1979-07-16 15:06:51.160 ,6,0,0.,12.0,0.,12.0,0.,12.0,0.,12.0
1979-07-16 15:07:03.160 ,6,0,0.,12.0,0.,12.0,0.,12.0,0.,12.0
1979-07-16 15:07:15.160 ,5,1,0.,12.0,0.,12.0,0.,12.0,0.,12.0
1979-07-16 15:07:27.160 ,5,1,0.,12.0,0.,12.0,0.,12.0,0.,12.0
1979-07-16 15:07:39.160 ,5,0,1.,12.0,0.,12.0,0.,12.0,0.,12.0
1979-07-16 15:07:51.160 ,5,0,1.,12.0,0.,12.0,0.,12.0,0.,12.0
1979-07-16 15:08:03.160 ,4,1,0.,12.0,0.,12.0,0.,12.0,0.,12.0
1979-07-16 15:08:15.160 ,4,1,0.,12.0,0.,12.0,0.,12.0,0.,12.0
1979-07-16 15:08:27.160 ,4,0,0.,12.0,0.,12.0,0.,12.0,0.,12.0
1979-07-16 15:08:39.160 ,4,0,0.,12.0,0.,12.0,0.,12.0,0.,12.0
1979-07-16 15:08:51.160 ,3,1,0.,12.0,0.,12.0,0.,12.0,0.,12.0
1979-07-16 15:09:03.160 ,3,1,0.,12.0,0.,12.0,0.,12.0,0.,12.0
1979-07-16 15:09:15.160 ,3,0,0.,12.0,0.,12.0,0.,12.0,0.,12.0
1979-07-16 15:09:27.160 ,3,0,0.,12.0,0.,12.0,0.,12.0,0.,12.0
1979-07-16 15:09:39.160 ,2,1,0.,12.0,0.,12.0,0.,12.0,0.,12.0
1979-07-16 15:09:51.160 ,2,1,0.,12.0,0.,12.0,0.,12.0,0.,12.0
1979-07-16 15:10:03.160 ,2,0,0.,12.0,0.,12.0,0.,12.0,0.,12.0
1979-07-16 15:10:15.160 ,2,0,1.,12.0,0.,12.0,0.,12.0,1.,12.0
1979-07-16 15:10:27.160 ,1,1,0.,12.0,0.,12.0,0.,12.0,1.,12.0
1979-07-16 15:10:39.160 ,1,1,0.,12.0,0.,12.0,0.,12.0,0.,12.0
1979-07-16 15:10:51.160 ,1,0,0.,12.0,0.,12.0,0.,12.0,0.,12.0
1979-07-16 15:11:03.160 ,1,0,0.,12.0,0.,12.0,0.,12.0,0.,12.0
1979-07-16 15:11:15.160 ,0,1,0.,12.0,0.,12.0,0.,12.0,0.,12.0
1979-07-16 15:11:27.160 ,0,1,0.,12.0,0.,12.0,0.,12.0,0.,12.0
1979-07-16 15:11:39.160 ,0,0,0.,12.0,0.,12.0,0.,12.0,0.,12.0
1979-07-16 15:11:51.160 ,0,0,0.,12.0,0.,12.0,0.,12.0,0.,12.0
1979-07-16 15:12:03.160 ,0,1,0.,12.0,0.,12.0,0.,12.0,0.,12.0
1979-07-16 15:12:15.160 ,0,1,0.,12.0,0.,12.0,0.,12.0,0.,12.0
1979-07-16 15:12:27.160 ,0,0,0.,12.0,0.,12.0,0.,12.0,0.,12.0
1979-07-16 15:12:39.160 ,0,0,0.,12.0,0.,12.0,0.,12.0,0.,12.0
1979-07-16 15:12:51.160 ,1,1,0.,12.0,0.,12.0,0.,12.0,0.,12.0
1979-07-16 15:13:03.160 ,1,1,0.,12.0,0.,12.0,0.,12.0,0.,12.0
1979-07-16 15:13:15.160 ,1,0,0.,12.0,0.,12.0,0.,12.0,0.,12.0
1979-07-16 15:13:27.160 ,1,0,0.,12.0,0.,12.0,0.,12.0,0.,12.0
1979-07-16 15:13:39.160 ,2,1,0.,12.0,0.,12.0,0.,12.0,0.,12.0
1979-07-16 15:13:51.160 ,2,1,0.,12.0,0.,12.0,0.,12.0,0.,12.0
1979-07-16 15:14:03.160 ,2,0,0.,12.0,0.,12.0,0.,12.0,0.,12.0
1979-07-16 15:14:15.160 ,2,0,0.,12.0,0.,12.0,0.,12.0,0.,12.0
1979-07-16 15:14:27.160 ,3,1,0.,12.0,0.,12.0,0.,12.0,1.,12.0
1979-07-16 15:14:39.160 ,3,1,0.,12.0,0.,12.0,0.,12.0,0.,12.0
1979-07-16 15:14:51.160 ,3,0,0.,12.0,0.,12.0,0.,12.0,0.,12.0
1979-07-16 15:15:03.160 ,3,0,0.,12.0,0.,12.0,0.,12.0,0.,12.0
1979-07-16 15:15:15.160 ,4,1,0.,12.0,0.,12.0,0.,12.0,0.,12.0
1979-07-16 15:15:27.160 ,4,1,0.,12.0,0.,12.0,0.,12.0,0.,12.0
1979-07-16 15:15:39.160 ,4,0,0.,12.0,0.,12.0,0.,12.0,0.,12.0
1979-07-16 15:15:51.160 ,4,0,0.,12.0,0.,12.0,0.,12.0,0.,12.0
1979-07-16 15:16:03.160 ,5,1,0.,12.0,0.,12.0,0.,12.0,0.,12.0
1979-07-16 15:16:15.160 ,5,1,0.,12.0,0.,12.0,0.,12.0,0.,12.0
1979-07-16 15:16:27.160 ,5,0,0.,12.0,0.,12.0,0.,12.0,0.,12.0
1979-07-16 15:16:39.160 ,5,0,0.,12.0,0.,12.0,0.,12.0,0.,12.0
1979-07-16 15:16:51.160 ,6,1,0.,12.0,0.,12.0,0.,12.0,0.,12.0
1979-07-16 15:17:03.160 ,6,1,0.,12.0,0.,12.0,0.,12.0,0.,12.0
1979-07-16 15:17:15.160 ,6,0,0.,12.0,0.,12.0,0.,12.0,0.,12.0
1979-07-16 15:17:27.160 ,6,0,0.,12.0,0.,12.0,0.,12.0,0.,12.0
1979-07-16 15:17:39.160 ,7,1,0.,12.0,0.,12.0,0.,12.0,0.,12.0
1979-07-16 15:17:51.160 ,7,1,0.,12.0,0.,12.0,0.,12.0,0.,12.0
1979-07-16 15:18:03.160 ,7,0,0.,12.0,0.,12.0,0.,12.0,0.,12.0
1979-07-16 15:18:15.160 ,7,0,0.,12.0,0.,12.0,0.,12.0,0.,12.0
1979-07-16 15:18:27.160 ,7,1,0.,12.0,0.,12.0,0.,12.0,0.,12.0
1979-07-16 15:18:39.160 ,7,1,0.,12.0,0.,12.0,0.,12.0,0.,12.0
1979-07-16 15:18:51.160 ,7,0,0.,12.0,0.,12.0,0.,12.0,0.,12.0
1979-07-16 15:19:03.160 ,7,0,0.,12.0,0.,12.0,0.,12.0,0.,12.0
1979-07-16 15:19:15.160 ,6,1,0.,12.0,0.,12.0,0.,12.0,0.,12.0
1979-07-16 15:19:27.160 ,6,1,0.,12.0,0.,12.0,0.,12.0,0.,12.0
1979-07-16 15:19:39.160 ,6,0,0.,12.0,0.,12.0,0.,12.0,0.,12.0
1979-07-16 15:19:51.160 ,6,0,0.,12.0,0.,12.0,0.,12.0,0.,12.0
1979-07-16 15:20:03.160 ,5,1,0.,12.0,0.,12.0,0.,12.0,0.,12.0
1979-07-16 15:20:15.160 ,5,1,0.,12.0,0.,12.0,0.,12.0,0.,12.0
1979-07-16 15:20:27.160 ,5,0,0.,12.0,0.,12.0,0.,12.0,0.,12.0
1979-07-16 15:20:39.160 ,5,0,0.,12.0,0.,12.0,0.,12.0,0.,12.0
1979-07-16 15:20:51.160 ,4,1,0.,12.0,0.,12.0,0.,12.0,0.,12.0
1979-07-16 15:21:03.160 ,4,1,0.,12.0,0.,12.0,0.,12.0,0.,12.0
1979-07-16 15:21:15.160 ,4,0,0.,12.0,0.,12.0,0.,12.0,0.,12.0
1979-07-16 15:21:27.160 ,4,0,0.,12.0,0.,12.0,0.,12.0,0.,12.0
1979-07-16 15:21:39.160 ,3,1,0.,12.0,0.,12.0,0.,12.0,0.,12.0
1979-07-16 15:21:51.160 ,3,1,0.,12.0,0.,12.0,0.,12.0,0.,12.0
1979-07-16 15:22:03.160 ,3,0,0.,12.0,0.,12.0,0.,12.0,0.,12.0
1979-07-16 15:22:15.160 ,3,0,0.,12.0,0.,12.0,0.,12.0,0.,12.0
1979-07-16 15:22:27.160 ,2,1,0.,12.0,0.,12.0,0.,12.0,2.,12.0
1979-07-16 15:22:39.160 ,2,1,0.,12.0,0.,12.0,0.,12.0,0.,12.0
1979-07-16 15:22:51.160 ,2,0,0.,12.0,0.,12.0,0.,12.0,0.,12.0
1979-07-16 15:23:03.160 ,2,0,0.,12.0,0.,12.0,0.,12.0,0.,12.0
1979-07-16 15:23:15.160 ,1,1,0.,12.0,0.,12.0,0.,12.0,0.,12.0
1979-07-16 15:23:27.160 ,1,1,0.,12.0,0.,12.0,0.,12.0,0.,12.0
1979-07-16 15:23:39.160 ,1,0,0.,12.0,0.,12.0,0.,12.0,0.,12.0
1979-07-16 15:23:51.160 ,1,0,0.,12.0,0.,12.0,0.,12.0,0.,12.0
1979-07-16 15:24:03.160 ,0,1,0.,12.0,0.,12.0,0.,12.0,0.,12.0
1979-07-16 15:24:15.160 ,0,1,0.,12.0,0.,12.0,0.,12.0,0.,12.0
1979-07-16 15:24:27.160 ,0,0,0.,12.0,0.,12.0,0.,12.0,0.,12.0
1979-07-16 15:24:39.160 ,0,0,0.,12.0,0.,12.0,0.,12.0,0.,12.0
1979-07-16 15:24:51.160 ,0,1,0.,12.0,0.,12.0,0.,12.0,0.,12.0
1979-07-16 15:25:03.160 ,0,1,0.,12.0,0.,12.0,0.,12.0,0.,12.0
1979-07-16 15:25:15.160 ,0,0,0.,12.0,0.,12.0,0.,12.0,0.,12.0
1979-07-16 15:25:27.160 ,0,0,0.,12.0,0.,12.0,0.,12.0,0.,12.0
1979-07-16 15:25:39.160 ,1,1,0.,12.0,0.,12.0,0.,12.0,0.,12.0
1979-07-16 15:25:51.160 ,1,1,0.,12.0,0.,12.0,0.,12.0,0.,12.0
1979-07-16 15:26:03.160 ,1,0,0.,12.0,0.,12.0,0.,12.0,0.,12.0
1979-07-16 15:26:15.160 ,1,0,0.,12.0,0.,12.0,0.,12.0,0.,12.0
1979-07-16 15:26:27.160 ,2,1,0.,12.0,0.,12.0,0.,12.0,0.,12.0
1979-07-16 15:26:39.160 ,2,1,0.,12.0,0.,12.0,0.,12.0,0.,12.0
1979-07-16 15:26:51.160 ,2,0,0.,12.0,0.,12.0,0.,12.0,0.,12.0
1979-07-16 15:27:03.160 ,2,0,0.,12.0,0.,12.0,0.,12.0,0.,12.0
1979-07-16 15:27:15.160 ,3,1,0.,12.0,0.,12.0,0.,12.0,0.,12.0
1979-07-16 15:27:27.160 ,3,1,0.,12.0,0.,12.0,0.,12.0,0.,12.0
1979-07-16 15:27:39.160 ,3,0,0.,12.0,0.,12.0,0.,12.0,0.,12.0
1979-07-16 15:27:51.160 ,3,0,0.,12.0,0.,12.0,0.,12.0,0.,12.0
1979-07-16 15:28:03.160 ,4,1,0.,12.0,0.,12.0,0.,12.0,0.,12.0
1979-07-16 15:28:15.160 ,4,1,0.,12.0,0.,12.0,0.,12.0,0.,12.0
1979-07-16 15:28:27.160 ,4,0,0.,12.0,0.,12.0,0.,12.0,0.,12.0
1979-07-16 15:28:39.160 ,4,0,0.,12.0,0.,12.0,0.,12.0,0.,12.0
1979-07-16 15:28:51.160 ,5,1,0.,12.0,0.,12.0,0.,12.0,0.,12.0
1979-07-16 15:29:03.160 ,5,1,0.,12.0,0.,12.0,0.,12.0,0.,12.0
1979-07-16 15:29:15.160 ,5,0,0.,12.0,0.,12.0,0.,12.0,0.,12.0
1979-07-16 15:29:27.160 ,5,0,0.,12.0,0.,12.0,0.,12.0,0.,12.0
1979-07-16 15:29:39.160 ,6,1,0.,12.0,0.,12.0,0.,12.0,0.,12.0
1979-07-16 15:29:51.160 ,6,1,0.,12.0,0.,12.0,0.,12.0,0.,12.0
1979-07-16 15:30:03.160 ,6,0,0.,12.0,0.,12.0,0.,12.0,0.,12.0
1979-07-16 15:30:15.160 ,6,0,0.,12.0,0.,12.0,0.,12.0,0.,12.0
1979-07-16 15:30:27.160 ,7,0,0.,12.0,0.,12.0,0.,12.0,0.,12.0
1979-07-16 15:30:39.160 ,7,0,0.,12.0,0.,12.0,0.,12.0,0.,12.0
1979-07-16 15:30:51.160 ,7,0,0.,12.0,0.,12.0,0.,12.0,0.,12.0
1979-07-16 15:31:03.160 ,7,0,0.,12.0,0.,12.0,0.,12.0,0.,12.0
1979-07-16 15:31:15.160 ,0,0,0.,12.0,0.,12.0,0.,12.0,0.,12.0
1979-07-16 15:31:27.160 ,0,0,0.,12.0,0.,12.0,0.,12.0,0.,12.0
1979-07-16 15:31:39.160 ,0,0,0.,12.0,0.,12.0,0.,12.0,0.,12.0
1979-07-16 15:31:51.160 ,0,0,0.,12.0,0.,12.0,0.,12.0,0.,12.0
1979-07-16 15:32:03.160 ,3,1,0.,12.0,0.,12.0,0.,12.0,0.,12.0
1979-07-16 15:32:15.160 ,3,1,0.,12.0,0.,12.0,0.,12.0,0.,12.0
1979-07-16 15:32:27.160 ,7,1,0.,12.0,0.,12.0,0.,12.0,0.,12.0
1979-07-16 15:32:39.160 ,7,1,0.,12.0,0.,12.0,0.,12.0,0.,12.0
1979-07-16 15:32:51.160 ,4,1,0.,12.0,0.,12.0,0.,12.0,0.,12.0
1979-07-16 15:33:03.160 ,4,1,0.,12.0,0.,12.0,0.,12.0,0.,12.0
1979-07-16 15:33:15.160 ,0,1,0.,12.0,0.,12.0,0.,12.0,0.,12.0
1979-07-16 15:33:27.160 ,0,1,0.,12.0,0.,12.0,0.,12.0,0.,12.0
1979-07-16 15:33:39.160 ,3,1,0.,12.0,0.,12.0,0.,12.0,0.,12.0
1979-07-16 15:33:51.160 ,3,1,0.,12.0,0.,12.0,0.,12.0,0.,12.0
1979-07-16 15:34:03.160 ,7,1,1.,12.0,0.,12.0,0.,12.0,0.,12.0
1979-07-16 15:34:15.160 ,7,1,0.,12.0,0.,12.0,0.,12.0,0.,12.0
1979-07-16 15:34:27.160 ,4,1,0.,12.0,0.,12.0,0.,12.0,0.,12.0
1979-07-16 15:34:39.160 ,4,1,0.,12.0,0.,12.0,0.,12.0,0.,12.0
1979-07-16 15:34:51.160 ,0,1,0.,12.0,0.,12.0,0.,12.0,1.,12.0
1979-07-16 15:35:03.160 ,0,1,0.,12.0,0.,12.0,0.,12.0,0.,12.0
1979-07-16 15:35:15.160 ,3,1,0.,12.0,0.,12.0,0.,12.0,0.,12.0
1979-07-16 15:35:27.160 ,3,1,1.,12.0,0.,12.0,0.,12.0,0.,12.0
1979-07-16 15:35:39.160 ,7,1,0.,12.0,0.,12.0,0.,12.0,0.,12.0
1979-07-16 15:35:51.160 ,7,1,0.,12.0,0.,12.0,0.,12.0,0.,12.0
1979-07-16 15:36:03.160 ,4,1,0.,12.0,0.,12.0,0.,12.0,0.,12.0
1979-07-16 15:36:15.160 ,4,1,0.,12.0,0.,12.0,0.,12.0,0.,12.0
1979-07-16 15:36:27.160 ,0,1,1.,12.0,0.,12.0,0.,12.0,0.,12.0
1979-07-16 15:36:39.160 ,0,1,0.,12.0,0.,12.0,0.,12.0,0.,12.0
1979-07-16 15:36:51.160 ,3,1,0.,12.0,0.,12.0,0.,12.0,0.,12.0
1979-07-16 15:37:03.160 ,3,1,1.,12.0,0.,12.0,0.,12.0,0.,12.0
1979-07-16 15:37:15.160 ,7,1,0.,12.0,0.,12.0,0.,12.0,1.,12.0
1979-07-16 15:37:27.160 ,7,1,0.,12.0,0.,12.0,0.,12.0,0.,12.0
1979-07-16 15:37:39.160 ,4,1,0.,12.0,0.,12.0,0.,12.0,0.,12.0
1979-07-16 15:37:51.160 ,4,1,0.,12.0,0.,12.0,0.,12.0,0.,12.0
1979-07-16 15:38:03.160 ,0,1,0.,12.0,0.,12.0,0.,12.0,0.,12.0
1979-07-16 15:38:15.160 ,0,1,0.,12.0,0.,12.0,0.,12.0,0.,12.0
1979-07-16 15:38:27.160 ,3,1,0.,12.0,0.,12.0,0.,12.0,0.,12.0
1979-07-16 15:38:39.160 ,3,1,0.,12.0,0.,12.0,0.,12.0,2.,12.0
1979-07-16 15:38:51.160 ,7,1,0.,12.0,0.,12.0,0.,12.0,0.,12.0
1979-07-16 15:39:03.160 ,7,1,0.,12.0,0.,12.0,0.,12.0,0.,12.0
1979-07-16 15:39:15.160 ,4,1,0.,12.0,0.,12.0,0.,12.0,0.,12.0
1979-07-16 15:39:27.160 ,4,1,1.,12.0,0.,12.0,0.,12.0,0.,12.0
1979-07-16 15:39:39.160 ,0,1,0.,12.0,0.,12.0,0.,12.0,0.,12.0
1979-07-16 15:39:51.160 ,0,1,0.,12.0,0.,12.0,0.,12.0,0.,12.0
1979-07-16 15:40:03.160 ,3,1,0.,12.0,0.,12.0,0.,12.0,0.,12.0
1979-07-16 15:40:15.160 ,3,1,0.,12.0,0.,12.0,0.,12.0,0.,12.0
1979-07-16 15:40:27.160 ,7,1,0.,12.0,0.,12.0,0.,12.0,0.,12.0
1979-07-16 15:40:39.160 ,7,1,0.,12.0,0.,12.0,0.,12.0,0.,12.0
1979-07-16 15:40:51.160 ,4,1,0.,12.0,0.,12.0,0.,12.0,0.,12.0
1979-07-16 15:41:03.160 ,4,1,0.,12.0,0.,12.0,0.,12.0,1.,12.0
1979-07-16 15:41:15.160 ,0,1,0.,12.0,0.,12.0,0.,12.0,1.,12.0
1979-07-16 15:41:27.160 ,0,1,0.,12.0,0.,12.0,0.,12.0,0.,12.0
1979-07-16 15:41:39.160 ,0,0,0.,12.0,0.,12.0,0.,12.0,0.,12.0
1979-07-16 15:41:51.160 ,0,0,0.,12.0,0.,12.0,0.,12.0,0.,12.0
1979-07-16 15:42:03.160 ,0,0,0.,12.0,0.,12.0,0.,12.0,0.,12.0
1979-07-16 15:42:15.160 ,0,0,0.,12.0,0.,12.0,0.,12.0,0.,12.0
1979-07-16 15:42:27.160 ,5,1,0.,12.0,0.,12.0,0.,12.0,0.,12.0
1979-07-16 15:42:39.160 ,5,1,0.,12.0,0.,12.0,0.,12.0,0.,12.0
1979-07-16 15:42:51.160 ,5,0,0.,12.0,0.,12.0,0.,12.0,0.,12.0
1979-07-16 15:43:03.160 ,5,0,1.,12.0,0.,12.0,0.,12.0,0.,12.0
1979-07-16 15:43:15.160 ,4,1,0.,12.0,0.,12.0,0.,12.0,0.,12.0
1979-07-16 15:43:27.160 ,4,1,0.,12.0,0.,12.0,0.,12.0,1.,12.0
1979-07-16 15:43:39.160 ,4,0,0.,12.0,0.,12.0,0.,12.0,0.,12.0
1979-07-16 15:43:51.160 ,4,0,0.,12.0,0.,12.0,0.,12.0,1.,12.0
1979-07-16 15:44:03.160 ,3,1,0.,12.0,0.,12.0,0.,12.0,0.,12.0
1979-07-16 15:44:15.160 ,3,1,0.,12.0,0.,12.0,0.,12.0,2.,12.0
1979-07-16 15:44:27.160 ,3,0,0.,12.0,0.,12.0,0.,12.0,0.,12.0
1979-07-16 15:44:39.160 ,3,0,1.,12.0,0.,12.0,0.,12.0,0.,12.0
1979-07-16 15:44:51.160 ,2,1,0.,12.0,0.,12.0,0.,12.0,0.,12.0
1979-07-16 15:45:03.160 ,2,1,1.,12.0,0.,12.0,0.,12.0,1.,12.0
1979-07-16 15:45:15.160 ,2,0,1.,12.0,0.,12.0,0.,12.0,1.,12.0
1979-07-16 15:45:27.160 ,2,0,0.,12.0,0.,12.0,0.,12.0,0.,12.0
1979-07-16 15:45:39.160 ,1,1,0.,12.0,0.,12.0,0.,12.0,0.,12.0
1979-07-16 15:45:51.160 ,1,1,0.,12.0,0.,12.0,0.,12.0,0.,12.0
1979-07-16 15:46:03.160 ,1,0,0.,12.0,0.,12.0,0.,12.0,0.,12.0
1979-07-16 15:46:15.160 ,1,0,0.,12.0,0.,12.0,0.,12.0,0.,12.0
1979-07-16 15:46:27.160 ,0,1,0.,12.0,0.,12.0,0.,12.0,0.,12.0
1979-07-16 15:46:39.160 ,0,1,1.,12.0,0.,12.0,0.,12.0,0.,12.0
1979-07-16 15:46:51.160 ,0,0,0.,12.0,0.,12.0,0.,12.0,0.,12.0
1979-07-16 15:47:03.160 ,0,0,0.,12.0,0.,12.0,0.,12.0,0.,12.0
1979-07-16 15:47:15.160 ,0,1,0.,12.0,0.,12.0,0.,12.0,0.,12.0
1979-07-16 15:47:27.160 ,0,1,0.,12.0,0.,12.0,0.,12.0,0.,12.0
1979-07-16 15:47:39.160 ,0,0,0.,12.0,0.,12.0,0.,12.0,0.,12.0
1979-07-16 15:47:51.160 ,0,0,0.,12.0,0.,12.0,0.,12.0,0.,12.0
1979-07-16 15:48:03.160 ,1,1,0.,12.0,0.,12.0,0.,12.0,0.,12.0
1979-07-16 15:48:15.160 ,1,1,0.,12.0,0.,12.0,0.,12.0,0.,12.0
1979-07-16 15:48:27.160 ,1,0,1.,12.0,0.,12.0,0.,12.0,0.,12.0
1979-07-16 15:48:39.160 ,1,0,0.,12.0,0.,12.0,0.,12.0,0.,12.0
1979-07-16 15:48:51.160 ,2,1,0.,12.0,0.,12.0,0.,12.0,0.,12.0
1979-07-16 15:49:03.160 ,2,1,0.,12.0,0.,12.0,0.,12.0,0.,12.0
1979-07-16 15:49:15.160 ,2,0,0.,12.0,0.,12.0,0.,12.0,0.,12.0
1979-07-16 15:49:27.160 ,2,0,0.,12.0,0.,12.0,0.,12.0,0.,12.0
1979-07-16 15:49:39.160 ,3,1,0.,12.0,0.,12.0,0.,12.0,1.,12.0
1979-07-16 15:49:51.160 ,3,1,1.,12.0,0.,12.0,0.,12.0,0.,12.0
1979-07-16 15:50:03.160 ,3,0,0.,12.0,0.,12.0,0.,12.0,0.,12.0
1979-07-16 15:50:15.160 ,3,0,0.,12.0,0.,12.0,0.,12.0,0.,12.0
1979-07-16 15:50:27.160 ,4,1,0.,12.0,0.,12.0,0.,12.0,0.,12.0
1979-07-16 15:50:39.160 ,4,1,0.,12.0,0.,12.0,0.,12.0,0.,12.0
1979-07-16 15:50:51.160 ,4,0,0.,12.0,0.,12.0,0.,12.0,0.,12.0
1979-07-16 15:51:03.160 ,4,0,0.,12.0,0.,12.0,0.,12.0,0.,12.0
1979-07-16 15:51:15.160 ,5,1,0.,12.0,0.,12.0,0.,12.0,0.,12.0
1979-07-16 15:51:27.160 ,5,1,0.,12.0,0.,12.0,0.,12.0,0.,12.0
1979-07-16 15:51:39.160 ,5,0,0.,12.0,0.,12.0,0.,12.0,0.,12.0
1979-07-16 15:51:51.160 ,5,0,0.,12.0,0.,12.0,0.,12.0,0.,12.0
1979-07-16 15:52:03.160 ,6,1,0.,12.0,0.,12.0,0.,12.0,0.,12.0
1979-07-16 15:52:15.160 ,6,1,0.,12.0,0.,12.0,0.,12.0,0.,12.0
1979-07-16 15:52:27.160 ,6,0,0.,12.0,0.,12.0,0.,12.0,0.,12.0
1979-07-16 15:52:39.160 ,6,0,0.,12.0,0.,12.0,0.,12.0,0.,12.0
1979-07-16 15:52:51.160 ,7,1,0.,12.0,0.,12.0,0.,12.0,0.,12.0
1979-07-16 15:53:03.160 ,7,1,0.,12.0,0.,12.0,0.,12.0,0.,12.0
1979-07-16 15:53:15.160 ,7,0,0.,12.0,0.,12.0,0.,12.0,0.,12.0
1979-07-16 15:53:27.160 ,7,0,0.,12.0,0.,12.0,0.,12.0,0.,12.0
1979-07-16 15:53:39.160 ,7,1,0.,12.0,0.,12.0,0.,12.0,0.,12.0
1979-07-16 15:53:51.160 ,7,1,0.,12.0,0.,12.0,0.,12.0,0.,12.0
1979-07-16 15:54:03.160 ,7,0,0.,12.0,0.,12.0,0.,12.0,0.,12.0
1979-07-16 15:54:15.160 ,7,0,0.,12.0,0.,12.0,0.,12.0,0.,12.0
1979-07-16 15:54:27.160 ,6,1,0.,12.0,0.,12.0,0.,12.0,0.,12.0
1979-07-16 15:54:39.160 ,6,1,0.,12.0,0.,12.0,0.,12.0,0.,12.0
1979-07-16 15:54:51.160 ,6,0,0.,12.0,0.,12.0,0.,12.0,0.,12.0
1979-07-16 15:55:03.160 ,6,0,0.,12.0,0.,12.0,0.,12.0,0.,12.0
1979-07-16 15:55:15.160 ,5,1,0.,12.0,0.,12.0,0.,12.0,0.,12.0
1979-07-16 15:55:27.160 ,5,1,0.,12.0,0.,12.0,0.,12.0,0.,12.0
1979-07-16 15:55:39.160 ,5,0,0.,12.0,0.,12.0,0.,12.0,0.,12.0
1979-07-16 15:55:51.160 ,5,0,0.,12.0,0.,12.0,0.,12.0,0.,12.0
1979-07-16 15:56:03.160 ,4,1,0.,12.0,0.,12.0,0.,12.0,0.,12.0
1979-07-16 15:56:15.160 ,4,1,0.,12.0,0.,12.0,0.,12.0,0.,12.0
1979-07-16 15:56:27.160 ,4,0,0.,12.0,0.,12.0,0.,12.0,0.,12.0
1979-07-16 15:56:39.160 ,4,0,0.,12.0,0.,12.0,0.,12.0,0.,12.0
1979-07-16 15:56:51.160 ,3,1,0.,12.0,0.,12.0,0.,12.0,0.,12.0
1979-07-16 15:57:03.160 ,3,1,0.,12.0,0.,12.0,0.,12.0,0.,12.0
1979-07-16 15:57:15.160 ,3,0,1.,12.0,0.,12.0,0.,12.0,0.,12.0
1979-07-16 15:57:27.160 ,3,0,0.,12.0,0.,12.0,0.,12.0,0.,12.0
1979-07-16 15:57:39.160 ,2,1,1.,12.0,0.,12.0,0.,12.0,0.,12.0
1979-07-16 15:57:51.160 ,2,1,0.,12.0,0.,12.0,0.,12.0,0.,12.0
1979-07-16 15:58:03.160 ,2,0,0.,12.0,0.,12.0,0.,12.0,0.,12.0
1979-07-16 15:58:15.160 ,2,0,0.,12.0,0.,12.0,0.,12.0,0.,12.0
1979-07-16 15:58:27.160 ,1,1,0.,12.0,0.,12.0,0.,12.0,0.,12.0
1979-07-16 15:58:39.160 ,1,1,0.,12.0,0.,12.0,0.,12.0,0.,12.0
1979-07-16 15:58:51.160 ,0,0,0.,12.0,0.,12.0,0.,12.0,0.,12.0
1979-07-16 15:59:03.160 ,0,0,0.,12.0,0.,12.0,0.,12.0,0.,12.0
1979-07-16 15:59:15.160 ,0,1,0.,12.0,0.,12.0,0.,12.0,0.,12.0
1979-07-16 15:59:27.160 ,0,1,0.,12.0,0.,12.0,0.,12.0,0.,12.0
1979-07-16 15:59:39.160 ,0,0,0.,12.0,0.,12.0,0.,12.0,0.,12.0
1979-07-16 15:59:51.160 ,0,0,0.,12.0,0.,12.0,0.,12.0,0.,12.0
1979-07-16 16:00:03.160 ,0,1,1.,12.0,0.,12.0,0.,12.0,0.,12.0
1979-07-16 16:00:15.160 ,0,1,0.,12.0,0.,12.0,0.,12.0,0.,12.0
1979-07-16 16:00:27.160 ,0,0,0.,12.0,0.,12.0,0.,12.0,0.,12.0
1979-07-16 16:00:39.160 ,0,0,0.,12.0,0.,12.0,0.,12.0,0.,12.0
1979-07-16 16:00:51.160 ,1,1,0.,12.0,0.,12.0,0.,12.0,0.,12.0
1979-07-16 16:01:03.160 ,1,1,0.,12.0,0.,12.0,0.,12.0,0.,12.0
1979-07-16 16:01:15.160 ,1,0,0.,12.0,0.,12.0,0.,12.0,0.,12.0
1979-07-16 16:01:27.160 ,1,0,0.,12.0,0.,12.0,0.,12.0,0.,12.0
1979-07-16 16:01:39.160 ,2,1,0.,12.0,0.,12.0,0.,12.0,0.,12.0
1979-07-16 16:01:51.160 ,2,1,0.,12.0,0.,12.0,0.,12.0,0.,12.0
1979-07-16 16:02:03.160 ,2,0,0.,12.0,0.,12.0,0.,12.0,0.,12.0
1979-07-16 16:02:15.160 ,2,0,0.,12.0,0.,12.0,0.,12.0,0.,12.0
1979-07-16 16:02:27.160 ,3,1,0.,12.0,0.,12.0,0.,12.0,0.,12.0
1979-07-16 16:02:39.160 ,3,1,0.,12.0,0.,12.0,0.,12.0,0.,12.0
1979-07-16 16:02:51.160 ,3,0,0.,12.0,0.,12.0,0.,12.0,0.,12.0
1979-07-16 16:03:03.160 ,3,0,0.,12.0,0.,12.0,0.,12.0,0.,12.0
1979-07-16 16:03:15.160 ,4,1,0.,12.0,0.,12.0,0.,12.0,0.,12.0
1979-07-16 16:03:27.160 ,4,1,0.,12.0,0.,12.0,0.,12.0,0.,12.0
1979-07-16 16:03:39.160 ,4,0,0.,12.0,0.,12.0,0.,12.0,0.,12.0
1979-07-16 16:03:51.160 ,4,0,0.,12.0,0.,12.0,0.,12.0,0.,12.0
1979-07-16 16:04:03.160 ,5,1,0.,12.0,0.,12.0,0.,12.0,0.,12.0
1979-07-16 16:04:15.160 ,5,1,0.,12.0,0.,12.0,0.,12.0,0.,12.0
1979-07-16 16:04:27.160 ,5,0,0.,12.0,0.,12.0,0.,12.0,0.,12.0
1979-07-16 16:04:39.160 ,5,0,0.,12.0,0.,12.0,0.,12.0,0.,12.0
1979-07-16 16:04:51.160 ,6,1,0.,12.0,0.,12.0,0.,12.0,0.,12.0
1979-07-16 16:05:03.160 ,6,1,0.,12.0,0.,12.0,0.,12.0,0.,12.0
1979-07-16 16:05:15.160 ,6,0,1.,12.0,0.,12.0,0.,12.0,0.,12.0
1979-07-16 16:05:27.160 ,6,0,0.,12.0,0.,12.0,0.,12.0,0.,12.0
1979-07-16 16:05:39.160 ,7,1,0.,12.0,0.,12.0,0.,12.0,0.,12.0
1979-07-16 16:05:51.160 ,7,1,0.,12.0,0.,12.0,0.,12.0,0.,12.0
1979-07-16 16:06:03.160 ,7,0,0.,12.0,0.,12.0,0.,12.0,0.,12.0
1979-07-16 16:06:15.160 ,7,0,0.,12.0,0.,12.0,0.,12.0,0.,12.0
1979-07-16 16:06:27.160 ,7,1,0.,12.0,0.,12.0,0.,12.0,0.,12.0
1979-07-16 16:06:39.160 ,7,1,0.,12.0,0.,12.0,0.,12.0,0.,12.0
1979-07-16 16:06:51.160 ,7,0,0.,12.0,0.,12.0,0.,12.0,0.,12.0
1979-07-16 16:07:03.160 ,7,0,0.,12.0,0.,12.0,0.,12.0,0.,12.0
1979-07-16 16:07:15.160 ,6,1,0.,12.0,0.,12.0,0.,12.0,0.,12.0
1979-07-16 16:07:27.160 ,6,1,0.,12.0,0.,12.0,0.,12.0,0.,12.0
1979-07-16 16:07:39.160 ,6,0,0.,12.0,0.,12.0,0.,12.0,0.,12.0
1979-07-16 16:07:51.160 ,6,0,0.,12.0,0.,12.0,0.,12.0,0.,12.0
1979-07-16 16:08:03.160 ,5,1,0.,12.0,0.,12.0,0.,12.0,0.,12.0
1979-07-16 16:08:15.160 ,5,1,0.,12.0,0.,12.0,0.,12.0,0.,12.0
1979-07-16 16:08:27.160 ,5,0,1.,12.0,0.,12.0,0.,12.0,0.,12.0
1979-07-16 16:08:39.160 ,5,0,0.,12.0,0.,12.0,0.,12.0,0.,12.0
1979-07-16 16:08:51.160 ,4,1,0.,12.0,0.,12.0,0.,12.0,0.,12.0
1979-07-16 16:09:03.160 ,4,1,0.,12.0,0.,12.0,0.,12.0,0.,12.0
1979-07-16 16:09:15.160 ,4,0,0.,12.0,0.,12.0,0.,12.0,0.,12.0
1979-07-16 16:09:27.160 ,4,0,0.,12.0,0.,12.0,0.,12.0,0.,12.0
1979-07-16 16:09:39.160 ,3,1,0.,12.0,0.,12.0,0.,12.0,0.,12.0
1979-07-16 16:09:51.160 ,3,1,0.,12.0,0.,12.0,0.,12.0,0.,12.0
1979-07-16 16:10:03.160 ,3,0,0.,12.0,0.,12.0,0.,12.0,0.,12.0
1979-07-16 16:10:15.160 ,3,0,0.,12.0,0.,12.0,0.,12.0,0.,12.0
1979-07-16 16:10:27.160 ,2,1,0.,12.0,0.,12.0,0.,12.0,0.,12.0
1979-07-16 16:10:39.160 ,2,1,0.,12.0,0.,12.0,0.,12.0,0.,12.0
1979-07-16 16:10:51.160 ,2,0,0.,12.0,0.,12.0,0.,12.0,0.,12.0
1979-07-16 16:11:03.160 ,2,0,1.,12.0,0.,12.0,0.,12.0,0.,12.0
1979-07-16 16:11:15.160 ,1,1,0.,12.0,0.,12.0,0.,12.0,0.,12.0
1979-07-16 16:11:27.160 ,1,1,0.,12.0,0.,12.0,0.,12.0,0.,12.0
1979-07-16 16:11:39.160 ,1,0,0.,12.0,0.,12.0,0.,12.0,0.,12.0
1979-07-16 16:11:51.160 ,1,0,0.,12.0,0.,12.0,0.,12.0,0.,12.0
1979-07-16 16:12:03.160 ,0,1,0.,12.0,0.,12.0,0.,12.0,0.,12.0
1979-07-16 16:12:15.160 ,0,1,0.,12.0,0.,12.0,0.,12.0,0.,12.0
1979-07-16 16:12:27.160 ,0,0,0.,12.0,0.,12.0,0.,12.0,0.,12.0
1979-07-16 16:12:39.160 ,0,0,0.,12.0,0.,12.0,0.,12.0,0.,12.0
1979-07-16 16:12:51.160 ,0,1,0.,12.0,0.,12.0,0.,12.0,0.,12.0
1979-07-16 16:13:03.160 ,0,1,0.,12.0,0.,12.0,0.,12.0,0.,12.0
1979-07-16 16:13:15.160 ,0,0,0.,12.0,0.,12.0,0.,12.0,0.,12.0
1979-07-16 16:13:27.160 ,0,0,0.,12.0,0.,12.0,0.,12.0,0.,12.0
1979-07-16 16:13:39.160 ,1,1,0.,12.0,0.,12.0,0.,12.0,0.,12.0
1979-07-16 16:13:51.160 ,1,1,0.,12.0,0.,12.0,0.,12.0,0.,12.0
1979-07-16 16:14:03.160 ,1,0,0.,12.0,0.,12.0,0.,12.0,0.,12.0
1979-07-16 16:14:15.160 ,1,0,0.,12.0,0.,12.0,0.,12.0,0.,12.0
1979-07-16 16:14:27.160 ,2,1,0.,12.0,0.,12.0,0.,12.0,0.,12.0
1979-07-16 16:14:39.160 ,2,1,0.,12.0,0.,12.0,0.,12.0,0.,12.0
1979-07-16 16:14:51.160 ,2,0,0.,12.0,0.,12.0,0.,12.0,0.,12.0
1979-07-16 16:15:03.160 ,2,0,0.,12.0,0.,12.0,0.,12.0,0.,12.0
1979-07-16 16:15:15.160 ,3,1,0.,12.0,0.,12.0,0.,12.0,0.,12.0
1979-07-16 16:15:27.160 ,3,1,0.,12.0,0.,12.0,0.,12.0,0.,12.0
1979-07-16 16:15:39.160 ,3,0,0.,12.0,0.,12.0,0.,12.0,0.,12.0
1979-07-16 16:15:51.160 ,3,0,0.,12.0,0.,12.0,0.,12.0,0.,12.0
1979-07-16 16:16:03.160 ,4,1,0.,12.0,0.,12.0,0.,12.0,0.,12.0
1979-07-16 16:16:15.160 ,4,1,0.,12.0,0.,12.0,0.,12.0,0.,12.0
1979-07-16 16:16:27.160 ,4,0,0.,12.0,0.,12.0,0.,12.0,0.,12.0
1979-07-16 16:16:39.160 ,4,0,0.,12.0,0.,12.0,0.,12.0,0.,12.0
1979-07-16 16:16:51.160 ,5,1,0.,12.0,0.,12.0,0.,12.0,0.,12.0
1979-07-16 16:17:03.160 ,5,1,0.,12.0,0.,12.0,0.,12.0,0.,12.0
1979-07-16 16:17:15.160 ,5,0,0.,12.0,0.,12.0,0.,12.0,0.,12.0
1979-07-16 16:17:27.160 ,5,0,0.,12.0,0.,12.0,0.,12.0,0.,12.0
1979-07-16 16:17:39.160 ,6,1,0.,12.0,0.,12.0,0.,12.0,0.,12.0
1979-07-16 16:17:51.160 ,6,1,0.,12.0,0.,12.0,0.,12.0,0.,12.0
1979-07-16 16:18:03.160 ,6,0,0.,12.0,0.,12.0,0.,12.0,0.,12.0
1979-07-16 16:18:15.160 ,6,0,0.,12.0,0.,12.0,0.,12.0,0.,12.0